When you browse on this site, cookies collect data to enhance your experience and personalize the content and advertising you see.
Visit our Privacy Policy to learn more. By continuing to use the site, you agree to this use of cookies and data.
  • In Switzerland
  • List of Countries
  • For 7 days
  • Water Temperature
  • Satellite Maps
  • Weather Map
  • Weather Widgets
  • user-avatar
    Login

    Hourly Weather Tomashivka

    Today, 21 April, Sunday

    Time Temperature Precipitation Wind Pressure Humidity
    00:00 +8°C° 0 mm 0 mps 752 mmHg 54%
    01:00 +7°C° 0 mm 0 mps 752 mmHg 54%
    02:00 +7°C° 0 mm 0 mps 752 mmHg 55%
    03:00 +8°C° 0 mm 1 mps 752 mmHg 56%
    04:00 +8°C° 0 mm 1 mps 752 mmHg 57%
    05:00 +7°C° 0 mm 1 mps 752 mmHg 58%
    06:00 +9°C° 0 mm 1 mps 752 mmHg 55%
    07:00 +9°C° 0 mm 2 mps 752 mmHg 53%
    08:00 +12°C° 0 mm 2 mps 752 mmHg 50%
    09:00 +13°C° 0 mm 2 mps 752 mmHg 45%
    10:00 +12°C° 0 mm 3 mps 753 mmHg 40%
    11:00 +13°C° 0 mm 3 mps 753 mmHg 34%
    12:00 +13°C° 0 mm 3 mps 753 mmHg 35%
    13:00 +14°C° 0 mm 3 mps 753 mmHg 35%
    14:00 +14°C° 0 mm 3 mps 753 mmHg 35%
    15:00 +14°C° 0 mm 3 mps 753 mmHg 37%
    16:00 +13°C° 0 mm 3 mps 753 mmHg 39%
    17:00 +13°C° 0 mm 3 mps 752 mmHg 41%
    18:00 +12°C° 0 mm 3 mps 753 mmHg 44%
    19:00 +12°C° 0 mm 2 mps 753 mmHg 47%
    20:00 +10°C° 0 mm 2 mps 753 mmHg 51%
    21:00 +9°C° 0 mm 2 mps 753 mmHg 51%
    22:00 +9°C° 0 mm 2 mps 754 mmHg 52%
    23:00 +9°C° 0 mm 2 mps 754 mmHg 53%

    Tomorrow, 22 April, Monday

    Time Temperature Precipitation Wind Pressure Humidity
    00:00 +8°C° 0 mm 2 mps 754 mmHg 53%
    01:00 +8°C° 0 mm 2 mps 754 mmHg 53%
    02:00 +8°C° 0 mm 2 mps 754 mmHg 54%
    03:00 +8°C° 0 mm 2 mps 754 mmHg 55%
    04:00 +8°C° 0 mm 2 mps 755 mmHg 56%
    05:00 +7°C° 0 mm 2 mps 755 mmHg 57%
    06:00 +9°C° 0 mm 2 mps 755 mmHg 54%
    07:00 +10°C° 0 mm 2 mps 755 mmHg 52%
    08:00 +12°C° 0 mm 2 mps 755 mmHg 49%
    09:00 +13°C° 0 mm 2 mps 756 mmHg 44%
    10:00 +13°C° 0 mm 3 mps 756 mmHg 39%
    11:00 +13°C° 0 mm 3 mps 756 mmHg 34%
    12:00 +14°C° 0 mm 3 mps 756 mmHg 34%
    13:00 +14°C° 0 mm 3 mps 756 mmHg 33%
    14:00 +15°C° 0 mm 2 mps 756 mmHg 33%
    15:00 +15°C° 0 mm 2 mps 756 mmHg 35%
    16:00 +15°C° 0 mm 2 mps 755 mmHg 37%
    17:00 +15°C° 0 mm 2 mps 755 mmHg 38%
    18:00 +14°C° 0 mm 2 mps 756 mmHg 42%
    19:00 +13°C° 0 mm 2 mps 756 mmHg 45%
    20:00 +12°C° 0 mm 2 mps 756 mmHg 49%
    21:00 +10°C° 0 mm 2 mps 756 mmHg 51%
    22:00 +10°C° 0 mm 2 mps 756 mmHg 52%
    23:00 +9°C° 0 mm 2 mps 756 mmHg 54%

    Day after tomorrow, 23 April, Tuesday

    Time Temperature Precipitation Wind Pressure Humidity
    00:00 +9°C° 0 mm 2 mps 756 mmHg 55%
    01:00 +9°C° 0 mm 2 mps 756 mmHg 55%
    02:00 +8°C° 0 mm 2 mps 756 mmHg 56%
    03:00 +8°C° 0 mm 2 mps 757 mmHg 58%
    04:00 +8°C° 0 mm 2 mps 757 mmHg 60%
    05:00 +7°C° 0 mm 2 mps 757 mmHg 62%
    06:00 +9°C° 0 mm 2 mps 757 mmHg 58%
    07:00 +12°C° 0 mm 2 mps 757 mmHg 55%
    08:00 +13°C° 0 mm 2 mps 757 mmHg 51%
    09:00 +14°C° 0 mm 2 mps 757 mmHg 47%
    10:00 +15°C° 0 mm 2 mps 757 mmHg 42%
    11:00 +16°C° 0 mm 3 mps 757 mmHg 37%
    12:00 +16°C° 0 mm 2 mps 757 mmHg 38%
    13:00 +16°C° 0 mm 2 mps 757 mmHg 38%
    14:00 +16°C° 0 mm 2 mps 757 mmHg 39%
    15:00 +16°C° 0 mm 2 mps 757 mmHg 40%
    16:00 +16°C° 0 mm 1 mps 757 mmHg 42%
    17:00 +16°C° 0 mm 1 mps 757 mmHg 44%
    18:00 +15°C° 0 mm 1 mps 757 mmHg 46%
    19:00 +14°C° 0 mm 1 mps 757 mmHg 47%
    20:00 +13°C° 0 mm 1 mps 757 mmHg 49%
    21:00 +13°C° 0 mm 1 mps 757 mmHg 50%
    22:00 +12°C° 0 mm 0 mps 757 mmHg 50%
    23:00 +12°C° 0 mm 0 mps 757 mmHg 50%

    24 April, Wednesday

    Time Temperature Precipitation Wind Pressure Humidity
    00:00 +11°C° 0 mm 0 mps 757 mmHg 51%
    01:00 +11°C° 0 mm 0 mps 757 mmHg 52%
    02:00 +10°C° 0 mm 0 mps 757 mmHg 53%
    03:00 +10°C° 0 mm 0 mps 757 mmHg 55%
    04:00 +9°C° 0 mm 0 mps 758 mmHg 57%
    05:00 +8°C° 0 mm 0 mps 758 mmHg 60%
    06:00 +11°C° 0 mm 1 mps 758 mmHg 56%
    07:00 +13°C° 0 mm 1 mps 758 mmHg 52%
    08:00 +15°C° 0 mm 1 mps 758 mmHg 49%
    09:00 +15°C° 0 mm 1 mps 758 mmHg 45%
    10:00 +16°C° 0 mm 1 mps 758 mmHg 41%
    11:00 +17°C° 0 mm 2 mps 757 mmHg 38%
    12:00 +19°C° 0 mm 1 mps 757 mmHg 37%
    13:00 +20°C° 0 mm 1 mps 757 mmHg 36%
    14:00 +20°C° 0 mm 1 mps 757 mmHg 35%
    15:00 +20°C° 0 mm 1 mps 757 mmHg 35%
    16:00 +18°C° 0 mm 0 mps 756 mmHg 35%
    17:00 +18°C° 0 mm 0 mps 756 mmHg 36%
    18:00 +16°C° 0 mm 0 mps 756 mmHg 40%
    19:00 +15°C° 0 mm 0 mps 756 mmHg 44%
    20:00 +13°C° 0 mm 0 mps 756 mmHg 49%
    21:00 +12°C° 0 mm 0 mps 756 mmHg 51%
    22:00 +12°C° 0 mm 0 mps 756 mmHg 53%
    23:00 +12°C° 0 mm 1 mps 756 mmHg 55%

    25 April, Thursday

    Time Temperature Precipitation Wind Pressure Humidity
    00:00 +12°C° 0 mm 1 mps 756 mmHg 56%
    01:00 +12°C° 0 mm 1 mps 756 mmHg 58%
    02:00 +11°C° 0 mm 1 mps 757 mmHg 60%
    03:00 +11°C° 0 mm 1 mps 756 mmHg 61%
    04:00 +11°C° 0 mm 1 mps 756 mmHg 62%
    05:00 +10°C° 0 mm 1 mps 756 mmHg 64%
    06:00 +12°C° 0 mm 1 mps 757 mmHg 59%
    07:00 +14°C° 0 mm 1 mps 757 mmHg 55%
    08:00 +15°C° 0 mm 0 mps 757 mmHg 50%
    09:00 +18°C° 0 mm 1 mps 757 mmHg 47%
    10:00 +19°C° 0 mm 1 mps 756 mmHg 43%
    11:00 +20°C° 0 mm 2 mps 756 mmHg 40%
    12:00 +20°C° 0 mm 2 mps 756 mmHg 40%
    13:00 +20°C° 0 mm 2 mps 756 mmHg 40%
    14:00 +21°C° 0 mm 2 mps 755 mmHg 40%
    15:00 +20°C° 0 mm 2 mps 755 mmHg 42%
    16:00 +20°C° 0 mm 2 mps 755 mmHg 44%
    17:00 +20°C° 0 mm 2 mps 754 mmHg 46%
    18:00 +19°C° 0 mm 2 mps 754 mmHg 49%
    19:00 +18°C° 0 mm 2 mps 754 mmHg 53%
    20:00 +16°C° 0 mm 2 mps 754 mmHg 56%
    21:00 +15°C° 0 mm 2 mps 754 mmHg 58%
    22:00 +14°C° 0 mm 1 mps 753 mmHg 59%
    23:00 +14°C° 0 mm 1 mps 753 mmHg 61%

    26 April, Friday

    Time Temperature Precipitation Wind Pressure Humidity
    00:00 +13°C° 0 mm 2 mps 753 mmHg 62%
    01:00 +13°C° 0 mm 2 mps 753 mmHg 63%
    02:00 +13°C° 0 mm 2 mps 753 mmHg 65%
    03:00 +12°C° 0 mm 2 mps 753 mmHg 67%
    04:00 +12°C° 0 mm 2 mps 752 mmHg 70%
    05:00 +10°C° 0 mm 2 mps 752 mmHg 73%
    06:00 +12°C° 0 mm 3 mps 752 mmHg 68%
    07:00 +14°C° 0 mm 3 mps 752 mmHg 64%
    08:00 +16°C° 0 mm 3 mps 752 mmHg 59%
    09:00 +17°C° 0 mm 4 mps 751 mmHg 55%
    10:00 +19°C° 0 mm 5 mps 751 mmHg 51%
    11:00 +20°C° 0 mm 6 mps 751 mmHg 47%
    12:00 +20°C° 0 mm 6 mps 750 mmHg 47%
    13:00 +20°C° 0 mm 6 mps 750 mmHg 47%
    14:00 +21°C° 0 mm 6 mps 749 mmHg 46%
    15:00 +20°C° 0 mm 6 mps 749 mmHg 49%
    16:00 +20°C° 0 mm 5 mps 749 mmHg 51%
    17:00 +20°C° 0 mm 4 mps 748 mmHg 53%
    18:00 +19°C° 0 mm 4 mps 748 mmHg 58%
    19:00 +17°C° 0 mm 4 mps 748 mmHg 62%
    20:00 +15°C° 0 mm 4 mps 747 mmHg 66%
    21:00 +14°C° 0 mm 4 mps 747 mmHg 68%
    22:00 +14°C° 0 mm 4 mps 747 mmHg 69%
    23:00 +14°C° 0 mm 4 mps 747 mmHg 70%
    Show more